When you browse on this site, cookies collect data to enhance your experience and personalize the content and advertising you see.
Visit our Privacy Policy to learn more. By continuing to use the site, you agree to this use of cookies and data.
  • In Switzerland
  • List of Countries
  • For 7 days
  • Water Temperature
  • Weather Map
  • Weather Widgets
  • user-avatar
    Login

    Hourly Weather Bern

    Today, 15 September, Sunday

    Time Temperature Precipitation Wind Pressure Humidity
    00:00 +16°C° 0 mm 0 mps 723 mmHg 95%
    01:00 +16°C° 0 mm 0 mps 722 mmHg 95%
    02:00 +16°C° 0 mm 0 mps 722 mmHg 95%
    03:00 +15°C° 0 mm 0 mps 722 mmHg 95%
    04:00 +16°C° 0 mm 0 mps 722 mmHg 95%
    05:00 +18°C° 0 mm 1 mps 722 mmHg 94%
    06:00 +18°C° 0 mm 1 mps 722 mmHg 93%
    07:00 +20°C° 0 mm 1 mps 722 mmHg 85%
    08:00 +23°C° 0 mm 1 mps 722 mmHg 77%
    09:00 +25°C° 0 mm 1 mps 722 mmHg 69%
    10:00 +26°C° 0 mm 1 mps 722 mmHg 64%
    11:00 +27°C° 0 mm 1 mps 722 mmHg 60%
    12:00 +29°C° 0 mm 1 mps 722 mmHg 55%
    13:00 +28°C° 0.1 mm 1 mps 721 mmHg 56%
    14:00 +28°C° 0.1 mm 1 mps 721 mmHg 57%
    15:00 +28°C° 0.1 mm 1 mps 721 mmHg 58%
    16:00 +26°C° 0.1 mm 1 mps 720 mmHg 67%
    17:00 +24°C° 0.1 mm 1 mps 720 mmHg 77%
    18:00 +19°C° 0.1 mm 0 mps 720 mmHg 86%
    19:00 +19°C° 0 mm 0 mps 720 mmHg 86%
    20:00 +20°C° 0 mm 1 mps 720 mmHg 86%
    21:00 +20°C° 0 mm 1 mps 720 mmHg 86%
    22:00 +19°C° 0 mm 1 mps 720 mmHg 86%
    23:00 +19°C° 0 mm 1 mps 720 mmHg 86%

    Tomorrow, 16 September, Monday

    Time Temperature Precipitation Wind Pressure Humidity
    00:00 +19°C° 0 mm 1 mps 720 mmHg 85%
    01:00 +19°C° 0 mm 1 mps 719 mmHg 86%
    02:00 +18°C° 0 mm 1 mps 719 mmHg 86%
    03:00 +18°C° 0 mm 1 mps 719 mmHg 86%
    04:00 +18°C° 0 mm 1 mps 719 mmHg 85%
    05:00 +18°C° 0 mm 1 mps 718 mmHg 84%
    06:00 +18°C° 0 mm 1 mps 718 mmHg 84%
    07:00 +21°C° 0 mm 1 mps 719 mmHg 76%
    08:00 +23°C° 0 mm 1 mps 719 mmHg 69%
    09:00 +26°C° 0 mm 1 mps 719 mmHg 61%
    10:00 +27°C° 0 mm 1 mps 719 mmHg 57%
    11:00 +28°C° 0 mm 1 mps 719 mmHg 54%
    12:00 +29°C° 0 mm 1 mps 719 mmHg 50%
    13:00 +28°C° 0.1 mm 1 mps 718 mmHg 53%
    14:00 +28°C° 0.1 mm 1 mps 718 mmHg 55%
    15:00 +28°C° 0.1 mm 1 mps 717 mmHg 58%
    16:00 +26°C° 0.2 mm 1 mps 717 mmHg 67%
    17:00 +23°C° 0.2 mm 1 mps 717 mmHg 77%
    18:00 +21°C° 0.2 mm 1 mps 717 mmHg 87%
    19:00 +20°C° 0 mm 1 mps 717 mmHg 88%
    20:00 +20°C° 0 mm 1 mps 717 mmHg 90%
    21:00 +19°C° 0 mm 1 mps 718 mmHg 91%
    22:00 +18°C° 0 mm 1 mps 717 mmHg 91%
    23:00 +18°C° 0 mm 1 mps 717 mmHg 92%

    Day after tomorrow, 17 September, Tuesday

    Time Temperature Precipitation Wind Pressure Humidity
    00:00 +18°C° 0 mm 1 mps 717 mmHg 92%
    01:00 +16°C° 0 mm 1 mps 717 mmHg 92%
    02:00 +15°C° 0 mm 0 mps 717 mmHg 93%
    03:00 +15°C° 0 mm 0 mps 716 mmHg 93%
    04:00 +15°C° 0 mm 0 mps 716 mmHg 93%
    05:00 +15°C° 0 mm 0 mps 716 mmHg 93%
    06:00 +15°C° 0 mm 0 mps 716 mmHg 93%
    07:00 +19°C° 0 mm 1 mps 717 mmHg 87%
    08:00 +20°C° 0 mm 1 mps 717 mmHg 82%
    09:00 +21°C° 0 mm 2 mps 717 mmHg 76%
    10:00 +23°C° 0 mm 2 mps 717 mmHg 71%
    11:00 +24°C° 0 mm 2 mps 717 mmHg 66%
    12:00 +25°C° 0 mm 2 mps 716 mmHg 61%
    13:00 +24°C° 0.1 mm 2 mps 716 mmHg 61%
    14:00 +24°C° 0.1 mm 3 mps 716 mmHg 61%
    15:00 +24°C° 0.1 mm 3 mps 716 mmHg 62%
    16:00 +20°C° 0 mm 2 mps 715 mmHg 71%
    17:00 +18°C° 0 mm 2 mps 715 mmHg 79%
    18:00 +16°C° 0 mm 2 mps 715 mmHg 88%
    19:00 +16°C° 0 mm 2 mps 715 mmHg 89%
    20:00 +15°C° 0 mm 2 mps 716 mmHg 90%
    21:00 +15°C° 0 mm 2 mps 716 mmHg 90%
    22:00 +14°C° 0 mm 2 mps 716 mmHg 88%
    23:00 +14°C° 0 mm 2 mps 716 mmHg 85%

    18 September, Wednesday

    Time Temperature Precipitation Wind Pressure Humidity
    00:00 +12°C° 0 mm 3 mps 716 mmHg 82%
    01:00 +13°C° 0 mm 2 mps 716 mmHg 83%
    02:00 +12°C° 0 mm 2 mps 715 mmHg 84%
    03:00 +10°C° 0 mm 2 mps 715 mmHg 84%
    04:00 +10°C° 0 mm 2 mps 715 mmHg 85%
    05:00 +10°C° 0 mm 2 mps 716 mmHg 85%
    06:00 +9°C° 0 mm 2 mps 716 mmHg 85%
    07:00 +11°C° 0 mm 3 mps 716 mmHg 79%
    08:00 +13°C° 0 mm 3 mps 716 mmHg 74%
    09:00 +14°C° 0 mm 3 mps 716 mmHg 68%
    10:00 +15°C° 0 mm 4 mps 716 mmHg 64%
    11:00 +17°C° 0 mm 4 mps 716 mmHg 61%
    12:00 +19°C° 0 mm 4 mps 716 mmHg 57%
    13:00 +18°C° 0 mm 4 mps 716 mmHg 57%
    14:00 +18°C° 0 mm 4 mps 716 mmHg 58%
    15:00 +18°C° 0 mm 4 mps 716 mmHg 58%
    16:00 +16°C° 0 mm 3 mps 716 mmHg 65%
    17:00 +13°C° 0 mm 3 mps 716 mmHg 72%
    18:00 +13°C° 0 mm 2 mps 716 mmHg 79%
    19:00 +12°C° 0 mm 2 mps 716 mmHg 81%
    20:00 +10°C° 0 mm 2 mps 717 mmHg 82%
    21:00 +9°C° 0 mm 2 mps 717 mmHg 84%
    22:00 +9°C° 0 mm 2 mps 717 mmHg 85%
    23:00 +8°C° 0 mm 3 mps 717 mmHg 85%

    19 September, Thursday

    Time Temperature Precipitation Wind Pressure Humidity
    00:00 +8°C° 0 mm 3 mps 717 mmHg 86%
    01:00 +7°C° 0 mm 3 mps 717 mmHg 87%
    02:00 +7°C° 0 mm 2 mps 717 mmHg 88%
    03:00 +7°C° 0 mm 2 mps 717 mmHg 89%
    04:00 +5°C° 0 mm 3 mps 717 mmHg 88%
    05:00 +5°C° 0 mm 3 mps 717 mmHg 87%
    06:00 +5°C° 0 mm 3 mps 717 mmHg 86%
    07:00 +8°C° 0 mm 3 mps 718 mmHg 79%
    08:00 +10°C° 0 mm 4 mps 718 mmHg 71%
    09:00 +10°C° 0 mm 5 mps 718 mmHg 63%
    10:00 +13°C° 0 mm 5 mps 718 mmHg 58%
    11:00 +14°C° 0 mm 5 mps 718 mmHg 54%
    12:00 +15°C° 0 mm 5 mps 718 mmHg 49%
    13:00 +15°C° 0 mm 5 mps 718 mmHg 50%
    14:00 +15°C° 0 mm 5 mps 718 mmHg 51%
    15:00 +15°C° 0 mm 5 mps 718 mmHg 52%
    16:00 +13°C° 0 mm 4 mps 719 mmHg 59%
    17:00 +11°C° 0 mm 4 mps 719 mmHg 66%
    18:00 +8°C° 0 mm 4 mps 719 mmHg 73%
    19:00 +7°C° 0 mm 4 mps 720 mmHg 76%
    20:00 +7°C° 0 mm 4 mps 720 mmHg 79%
    21:00 +7°C° 0 mm 3 mps 720 mmHg 82%
    22:00 +5°C° 0 mm 3 mps 720 mmHg 83%
    23:00 +5°C° 0 mm 3 mps 720 mmHg 85%

    20 September, Friday

    Time Temperature Precipitation Wind Pressure Humidity
    00:00 +4°C° 0 mm 3 mps 720 mmHg 86%
    01:00 +4°C° 0 mm 3 mps 720 mmHg 86%
    02:00 +4°C° 0 mm 3 mps 720 mmHg 87%
    03:00 +4°C° 0 mm 2 mps 720 mmHg 87%
    04:00 +4°C° 0 mm 2 mps 720 mmHg 86%
    05:00 +4°C° 0 mm 2 mps 720 mmHg 85%
    06:00 +4°C° 0 mm 2 mps 720 mmHg 84%
    07:00 +7°C° 0 mm 3 mps 720 mmHg 75%
    08:00 +9°C° 0 mm 3 mps 721 mmHg 66%
    09:00 +11°C° 0 mm 3 mps 721 mmHg 56%
    10:00 +12°C° 0 mm 4 mps 721 mmHg 53%
    11:00 +14°C° 0 mm 4 mps 721 mmHg 49%
    12:00 +15°C° 0 mm 4 mps 721 mmHg 46%
    13:00 +16°C° 0 mm 3 mps 721 mmHg 47%
    14:00 +16°C° 0 mm 3 mps 720 mmHg 48%
    15:00 +16°C° 0 mm 3 mps 720 mmHg 49%
    16:00 +14°C° 0 mm 2 mps 720 mmHg 58%
    17:00 +12°C° 0 mm 2 mps 720 mmHg 67%
    18:00 +10°C° 0 mm 1 mps 720 mmHg 76%
    19:00 +9°C° 0 mm 1 mps 720 mmHg 79%
    20:00 +9°C° 0 mm 1 mps 720 mmHg 83%
    21:00 +8°C° 0 mm 1 mps 721 mmHg 86%
    22:00 +8°C° 0 mm 1 mps 720 mmHg 86%
    23:00 +8°C° 0 mm 1 mps 720 mmHg 87%
    Show more